Regional Weather Roundup
Issued by NWS Sterling, VA

Home | Current Version | Previous Version | Text Only | Print | Product List | Glossary Off
Versions: 1 2 3 4 5 6 7 8 9 10 11 12 13 14 15 16 17 18 19 20 21 22 23 24 25 26 27 28 29 30 31 32 33 34 35 36 37 38 39 40 41 42 43 44 45 46 47 48 49 50

113
ASUS41 KLWX 230911
RWRLWX

REGIONAL WEATHER ROUNDUP
NATIONAL WEATHER SERVICE BALTIMORE MD/WASHINGTON DC
500 AM EDT TUE MAY 23 2017

Note: "FAIR" indicates few or no clouds below 12,000 feet
with no significant weather and/or obstructions to visibility.
 TC=TEMPERATURE CELSIUS

 * =Non NWS site. Station does not report precipitation (e.g. rain,
    snow, etc.), thunder, or fog.

DCZ001-MDZ009-015-VAZ040>042-051-053>054-231000-
WASHINGTON METRO

CITY           SKY/WX    TMP DP  RH WIND       PRES   REMARKS
WASHINGTON NAT CLOUDY    61  57  87 N8        29.95S
DULLES         CLOUDY    58  50  75 NW5       29.95F
ANDREWS AFB    CLOUDY    59  59  99 N5        29.93F
FT BELVOIR     PTCLDY    58  55  89 CALM      29.94S
QUANTICO       MOCLDY    63  52  67 N8        29.94F
COLLEGE PARK*  CLOUDY    58  57  97 CALM      29.94F
LEESBURG*      CLOUDY    57  54  88 N5        29.96F
MANASSAS*        N/A     59  51  75 N9        29.95F
GAITHERSBURG*  CLOUDY    54  53  97 CALM      29.96F FOG

$$

MDZ006>007-011-014-231000-
BALTIMORE METRO

CITY           SKY/WX    TMP DP  RH WIND       PRES   REMARKS
BWI AIRPORT    CLOUDY    57  57 100 NW5       29.93F
MD SCIENCE CTR   N/A     63  58  83 MISG      29.94F
MARTIN STATE   CLOUDY    59  59 100 CALM      29.95S FOG
ANNAPOLIS      CLOUDY    62  62 100 NW6       29.93F FOG
FORT MEADE*    MOCLDY    57  55  94 CALM      29.97S

$$

MDZ012-015-019>023-231000-
MARYLAND EASTERN SHORE

CITY           SKY/WX    TMP DP  RH WIND       PRES   REMARKS
OCEAN CITY     CLOUDY    63  61  93 CALM      29.93R
SALISBURY      PTCLDY    62  62 100 N3        29.92S FOG
BAY BRIDGE AP* CLOUDY    61  61 100 N5        29.94S FOG
CAMBRIDGE*     CLOUDY    61  61 100 N5        29.93  FOG
EASTON*        FOG       60  58  95 CALM      29.97S VSB 1/2

$$

MDZ017>025-231000-
SOUTHERN MARYLAND

CITY           SKY/WX    TMP DP  RH WIND       PRES   REMARKS
PATUXENT RIVER CLOUDY    64  64 100 N6        29.92F
ST INIGOES     CLOUDY    65  64  97 CALM      29.92F FOG
LEONARDTOWN*   CLOUDY    63  61  94 CALM      29.94F

$$

MDZ003>005-231000-
NORTH CENTRAL MARYLAND

CITY           SKY/WX    TMP DP  RH WIND       PRES   REMARKS
FREDERICK*     CLOUDY    54  54 100 CALM      29.99S FOG
HAGERSTOWN APT CLOUDY    57  48  72 N3        29.96F
WESTMINSTER*   CLOUDY    55  55 100 CALM      29.96F

$$

MDZ501>502-231000-
WESTERN MARYLAND

CITY           SKY/WX    TMP DP  RH WIND       PRES   REMARKS
OAKLAND*       CLOUDY    48  43  81 NE3       29.99F
CUMBERLAND*    CLOUDY    52  50  93 N3        30.01F

$$

VAZ025>031-231000-
SHENANDOAH VALLEY

CITY           SKY/WX    TMP DP  RH WIND       PRES   REMARKS
WINCHESTER*    CLOUDY    50  48  93 CALM      29.97S
FRONT ROYAL*   CLOUDY    52  52 100 CALM      29.96S
LURAY*         MOCLDY    54  54 100 CALM      29.96F
NEW MARKET*    CLOUDY    52  51  95 CALM      29.96F
STAUNTON*      CLOUDY    56  52  85 CALM      29.98S
WAYNESBORO*    CLOUDY    58  54  87 NW3       29.96F

$$

WVZ021-048>050-054>055-231000-
EASTERN WEST VIRGINIA PANHANDLE

CITY           SKY/WX    TMP DP  RH WIND       PRES   REMARKS
MARTINSBURG    MOCLDY    51  48  89 CALM      29.95F
PETERSBURG*    CLOUDY    51  51  97 CALM      29.99S

$$

VAZ036>039-050-231000-
CENTRAL FOOTHILLS

CITY           SKY/WX    TMP DP  RH WIND       PRES   REMARKS
CHARLOTTESVILL CLOUDY    63  56  78 NE6       29.94S
CULPEPER*      CLOUDY    60  55  82 N3        29.95F
ORANGE*        CLOUDY    61  50  67 NE6       29.94S
GORDONSVILLE*  CLOUDY    62  54  74 NE3       29.94S
WARRENTON*     MOCLDY    61  49  65 N5        29.94F

$$

VAZ055>057-231000-
NORTH AND CENTRAL PIEDMONT

CITY           SKY/WX    TMP DP  RH WIND       PRES   REMARKS
FREDERICKSBRG* CLOUDY    62  54  75 CALM      29.94S
STAFFORD*      CLOUDY    62  53  73 N5        29.98S

$$

NCZ024-NYZ072-PAZ021-071-VAZ022-071-231000-
OTHER REGIONAL OBSERVATIONS

CITY           SKY/WX    TMP DP  RH WIND       PRES   REMARKS
NEW YORK CITY  CLOUDY    59  57  93 N7        29.96R
PHILADELPHIA   CLOUDY    61  57  87 NW5       29.94R
PITTSBURGH     CLOUDY    50  48  93 CALM      29.95F
ROANOKE        CLOUDY    61  54  77 CALM      29.95F
RICHMOND       CLOUDY    64  64 100 N8        29.92S FOG
RALEIGH        LGT RAIN  68  67  96 CALM      29.89F

$$

ANZ530>537-231000-
MARINE OBSERVATIONS

STATION/POSITION TIME  TEMP    WIND        PRES
                       AIR SEA DIR/SP/G
                 (UTC) (F)     (DEG/KT/KT) (MB)
THOMAS PT LIGHT  0900   61 65  360/  7/  7   N/A
BALT KEY BRIDGE  0848   63     300/  5/  7 1013.7F
COVE POINT       0848   64      20/  8/ 10 1014.0F
LEWISETTA        0848   65 69   40/  4/  5 1013.2F
SOLOMONS ISLAND  0848   64 67  360/  3/  5   N/A
PINEY POINT      0842           30/  5/  5   N/A

$$





USA.gov is the U.S. government's official web portal to all federal, state and local government web resources and services.